Regional Weather Roundup
Issued by NWS

Home | Current Version | Previous Version | Text Only | Print | Product List | Glossary Off
Versions: 1 2 3 4 5 6 7 8 9 10 11 12 13 14 15 16 17 18 19 20 21 22 23 24 25 26 27

000
ASUS45 KBOU 232207
RWRCO

WEATHER ROUNDUP FOR COLORADO
NATIONAL WEATHER SERVICE DENVER/BOULDER CO
400 PM MDT SAT JUL 23 2016

NOTE: "FAIR" INDICATES FEW OR NO CLOUDS BELOW 12000 FEET WITH NO
SIGNIFICANT WEATHER AND/OR OBSTRUCTIONS TO VISIBILITY.

COZ001>005-013-030-031-232300-
...NORTHWEST COLORADO...

CITY           SKY/WX    TMP DP  RH WIND       PRES   REMARKS
CRAIG          FAIR      92  31  11 W16G24    30.15F
HAYDEN         FAIR      90  34  13 W23       30.18F
MEEKER         FAIR      80  47  31 NE12      30.19R
MOUNT WERNER   NOT AVBL
STEAMBOAT SPGS FAIR      81  39  22 SW7G32    30.22S
WALDEN         FAIR      79  34  19 W10G20    30.34F
$$

COZ006>008-011-232300-
...WEST CENTRAL VALLEYS...

CITY           SKY/WX    TMP DP  RH WIND       PRES   REMARKS
GRAND JUNCTION FAIR      97  46  17 W7        30.03F
MONTROSE       FAIR      93  41  16 N9        30.13F
EAGLE          SUNNY     88  43  20 S20G25    30.20S
RIFLE          FAIR      97  25   7 W14       30.09F
DELTA          FAIR     100  40  12 S10G20    30.07F
NUCLA          FAIR      90  37  15 N6        30.18F
$$

COZ017>023-064>068-232300-
...SOUTHWEST COLORADO...

CITY           SKY/WX    TMP DP  RH WIND       PRES   REMARKS
DURANGO        FAIR      83  43  24 E13       30.19F
CORTEZ         FAIR      96  40  14 W7        30.13F
PAGOSA SPRINGS PTSUNNY   81  37  20 NW13G23   30.33S
TELLURIDE      FAIR      80  37  21 W12       30.45F
WOLF CREEK PAS FAIR      57  36  44 NE12      30.72F
$$

COZ009-010-012-014-032>034-037-058>063-232300-
...CENTRAL COLORADO...

CITY           SKY/WX    TMP DP  RH WIND       PRES   REMARKS
ASPEN          FAIR      83  40  21 N10       30.30F
BUENA VISTA    FAIR      80  33  18 SE15G22   30.30F
COPPER MTN     FAIR      68  32  26 NW14G25   30.69S
BERTHOUD PASS  PTSUNNY   55  41  58 MISG      30.72F
COTTONWOOD PAS PTSUNNY   73  30  20 SE9       30.48F
GUNNISON       FAIR      82  43  24 E5        30.31F
KREMMLING      CLOUDY    70  50  49 N8        30.29S
LEADVILLE      FAIR      75  29  18 NW16G22   30.47F
MONARCH PASS   PTSUNNY   64  34  32 MISG      30.78F
SALIDA         FAIR      84  35  17 E6        30.35F
SUNLIGHT       LGT RAIN  64  46  52 CALM      30.62S
WILKERSON PASS LGT RAIN  61  32  33 NE9G25    30.64S
$$

COZ069>075-232300-
...SAN LUIS VALLEY/SANGRE DE CRISTO MOUNTAINS...

CITY           SKY/WX    TMP DP  RH WIND       PRES   REMARKS
ALAMOSA        FAIR      79  43  27 W17G28    30.28F
LA VETA PASS   FAIR      81  36  19 NE6       30.50F
SAGUACHE       FAIR      88  32  13 NW16G22   30.29S
$$

COZ035-036-038>040-232300-
...NORTHERN COLORADO FRONT RANGE...

CITY           SKY/WX    TMP DP  RH WIND       PRES   REMARKS
DENVER INTL AP PTSUNNY   98  38  12 S10       30.05F
DMNS CITY PARK   N/A     93  39  15 E3        30.04F
AURORA         PTSUNNY   95  38  13 S7        30.07F
FRONT RANGE AP PTSUNNY   97  36  11 S7        30.07F
ERIE MUNI ARPT FAIR     100  32   9 SE5       30.01F
BOULDER MUN AP FAIR      95  39  14 S8        30.02F
CENTENNIAL     PTSUNNY   93  33  12 E7        30.09F
BROOMFIELD     PTSUNNY   95  39  14 S10       30.07F
LONGMONT       FAIR     100  38  11 SE8       30.01F
$$

COZ041-046-047-076>085-087-088-232300-
...PIKES PEAK/PALMER DIVIDE AND SOUTHERN FOOTHILLS...

CITY           SKY/WX    TMP DP  RH WIND       PRES   REMARKS
COLO. SPRINGS  PTSUNNY   92  41  17 E9        30.14F
A. F. ACADEMY  MOSUNNY   86  43  22 E9        30.17F
SCHRIEVER AFB  NOT AVBL
ELLICOTT       FAIR       1  32 100 NE9       30.13F WCI -14
FALCON         FAIR      88  42  19 N5        30.22
FORT CARSON    FAIR      93  39  15 VRB5      30.09F
LIMON          FAIR      95  37  13 CALM      30.06F
MONUMENT HILL  FAIR      86  43  22 W7        30.23F
TRINIDAD       NOT AVBL
$$

COZ042>045-048>051-090-091-232300-
...NORTHEAST COLORADO...

CITY           SKY/WX    TMP DP  RH WIND       PRES   REMARKS
GREELEY ARPT   FAIR      93  39  15 SW9G21    30.01F
AKRON          FAIR      95  43  16 N5        30.01F
BURLINGTON     FAIR      99  45  15 NE12G17   29.98F
WRAY           FAIR     100  39  12 NE10G16   29.93F
STERLING       FAIR      99  45  15 S3        29.93F
HOLYOKE        FAIR      99  54  22 W9        29.94S
FORT MORGAN    FAIR      94  42  16 NE18      30.01S
$$

COZ086-089-092>099-232300-
...SOUTHEAST COLORADO...

CITY           SKY/WX    TMP DP  RH WIND       PRES   REMARKS
PUEBLO         FAIR     100  44  14 S6        29.97F
LA JUNTA       FAIR     103  51  17 NE16G23   29.94F
LAMAR          FAIR     102  53  19 E6        29.88F
SPRINGFIELD      N/A     95  50  21 S15       29.96S
$$




USA.gov is the U.S. government's official web portal to all federal, state and local government web resources and services.